{"data":{"norad_id":69238,"epoch":"2026-09-19T10:43:16.188096Z","epoch_age_seconds":117970,"freshness":"FRESH","line1":"1 69238U 26117A   26262.44671514  .00007661  00000+0  23769-3 0  9994","line2":"2 69238  53.1573 158.7956 0000916  67.1458 292.9641 15.34393285 17501","mean_motion":15.34393285,"eccentricity":9.16e-5,"inclination_deg":53.1573,"raan_deg":158.7956,"arg_perigee_deg":67.1458,"mean_anomaly_deg":292.9641,"bstar":0.00023769,"rev_number":1750,"period_min":93.848168789399,"perigee_km":462.09657588082,"apogee_km":463.34982146921,"semimajor_km":6840.860198675,"source":"CELESTRAK","updated_at":"2026-09-20T09:00:44.147107Z"}}